owner,sensor,date,latitude,longitude,vertical_datum,sea_water_temperature,qcFlag 
NERRS,ioos:station:NOAA.NERRS:gndbcwq:1,2017-01-01T17:45:00Z,30.3836,-88.4364,0.0,18.0,2 
NERRS,ioos:station:NOAA.NERRS:gndbcwq:1,2017-01-01T18:45:00Z,30.3836,-88.4364,0.0,18.5,2 
NERRS,ioos:station:NOAA.NERRS:gndbcwq:1,2017-01-01T19:45:00Z,30.3836,-88.4364,0.0,18.9,2 
NERRS,ioos:station:NOAA.NERRS:gndbcwq:1,2017-01-01T20:45:00Z,30.3836,-88.4364,0.0,18.9,2 
NERRS,ioos:station:NOAA.NERRS:gndbcwq:1,2017-01-01T21:45:00Z,30.3836,-88.4364,0.0,19.2,2 
NERRS,ioos:station:NOAA.NERRS:gndbcwq:1,2017-01-01T23:15:00Z,30.3836,-88.4364,0.0,19.2,2 
NERRS,ioos:station:NOAA.NERRS:gndbcwq:1,2017-01-02T16:45:00Z,30.3836,-88.4364,0.0,19.0,2 
NERRS,ioos:station:NOAA.NERRS:gndbcwq:1,2017-01-02T17:45:00Z,30.3836,-88.4364,0.0,19.2,2 
NERRS,ioos:station:NOAA.NERRS:gndbcwq:1,2017-01-02T18:45:00Z,30.3836,-88.4364,0.0,19.3,2 
NERRS,ioos:station:NOAA.NERRS:gndbcwq:1,2017-01-02T19:45:00Z,30.3836,-88.4364,0.0,19.4,2 
NERRS,ioos:station:NOAA.NERRS:gndbcwq:1,2017-01-02T20:15:00Z,30.3836,-88.4364,0.0,19.4,2 
NERRS,ioos:station:NOAA.NERRS:gndbcwq:1,2017-01-03T14:45:00Z,30.3836,-88.4364,0.0,17.9,2 
NERRS,ioos:station:NOAA.NERRS:gndbcwq:1,2017-01-03T15:45:00Z,30.3836,-88.4364,0.0,18.1,2 
NERRS,ioos:station:NOAA.NERRS:gndbcwq:1,2017-01-03T16:45:00Z,30.3836,-88.4364,0.0,18.3,2 
NERRS,ioos:station:NOAA.NERRS:gndbcwq:1,2017-01-03T17:45:00Z,30.3836,-88.4364,0.0,18.5,2 
NERRS,ioos:station:NOAA.NERRS:gndbcwq:1,2017-01-03T18:45:00Z,30.3836,-88.4364,0.0,18.8,2 
NERRS,ioos:station:NOAA.NERRS:gndbcwq:1,2017-01-03T19:45:00Z,30.3836,-88.4364,0.0,19.1,2 
NERRS,ioos:station:NOAA.NERRS:gndbcwq:1,2017-01-03T20:45:00Z,30.3836,-88.4364,0.0,19.2,2 
NERRS,ioos:station:NOAA.NERRS:gndbcwq:1,2017-01-03T21:45:00Z,30.3836,-88.4364,0.0,19.3,2 
NERRS,ioos:station:NOAA.NERRS:gndbcwq:1,2017-01-03T22:45:00Z,30.3836,-88.4364,0.0,19.2,2 
NERRS,ioos:station:NOAA.NERRS:gndbcwq:1,2017-01-03T23:45:00Z,30.3836,-88.4364,0.0,19.1,2 
NERRS,ioos:station:NOAA.NERRS:gndbcwq:1,2017-01-04T00:45:00Z,30.3836,-88.4364,0.0,19.0,2 
NERRS,ioos:station:NOAA.NERRS:gndbcwq:1,2017-01-04T01:45:00Z,30.3836,-88.4364,0.0,18.9,2 
NERRS,ioos:station:NOAA.NERRS:gndbcwq:1,2017-01-04T02:45:00Z,30.3836,-88.4364,0.0,18.9,2 
NERRS,ioos:station:NOAA.NERRS:gndbcwq:1,2017-01-04T03:45:00Z,30.3836,-88.4364,0.0,18.8,2 
NERRS,ioos:station:NOAA.NERRS:gndbcwq:1,2017-01-04T04:45:00Z,30.3836,-88.4364,0.0,18.7,2 
NERRS,ioos:station:NOAA.NERRS:gndbcwq:1,2017-01-04T05:45:00Z,30.3836,-88.4364,0.0,18.6,2 
NERRS,ioos:station:NOAA.NERRS:gndbcwq:1,2017-01-04T06:45:00Z,30.3836,-88.4364,0.0,18.4,2 
NERRS,ioos:station:NOAA.NERRS:gndbcwq:1,2017-01-04T07:45:00Z,30.3836,-88.4364,0.0,18.4,2 
NERRS,ioos:station:NOAA.NERRS:gndbcwq:1,2017-01-04T08:45:00Z,30.3836,-88.4364,0.0,18.1,2 
NERRS,ioos:station:NOAA.NERRS:gndbcwq:1,2017-01-04T09:45:00Z,30.3836,-88.4364,0.0,17.8,2 
NERRS,ioos:station:NOAA.NERRS:gndbcwq:1,2017-01-04T10:15:00Z,30.3836,-88.4364,0.0,17.8,2 
NERRS,ioos:station:NOAA.NERRS:gndbcwq:1,2017-01-04T14:45:00Z,30.3836,-88.4364,0.0,16.9,2 
NERRS,ioos:station:NOAA.NERRS:gndbcwq:1,2017-01-04T15:45:00Z,30.3836,-88.4364,0.0,17.3,2 
NERRS,ioos:station:NOAA.NERRS:gndbcwq:1,2017-01-04T16:45:00Z,30.3836,-88.4364,0.0,17.5,2 
NERRS,ioos:station:NOAA.NERRS:gndbcwq:1,2017-01-04T17:45:00Z,30.3836,-88.4364,0.0,17.8,2 
NERRS,ioos:station:NOAA.NERRS:gndbcwq:1,2017-01-04T18:45:00Z,30.3836,-88.4364,0.0,18.1,2 
NERRS,ioos:station:NOAA.NERRS:gndbcwq:1,2017-01-04T19:45:00Z,30.3836,-88.4364,0.0,18.4,2 
NERRS,ioos:station:NOAA.NERRS:gndbcwq:1,2017-01-04T20:45:00Z,30.3836,-88.4364,0.0,18.3,2 
NERRS,ioos:station:NOAA.NERRS:gndbcwq:1,2017-01-04T21:45:00Z,30.3836,-88.4364,0.0,18.2,2 
NERRS,ioos:station:NOAA.NERRS:gndbcwq:1,2017-01-04T22:45:00Z,30.3836,-88.4364,0.0,18.0,2 
NERRS,ioos:station:NOAA.NERRS:gndbcwq:1,2017-01-04T23:45:00Z,30.3836,-88.4364,0.0,17.8,2 
NERRS,ioos:station:NOAA.NERRS:gndbcwq:1,2017-01-05T00:45:00Z,30.3836,-88.4364,0.0,17.6,2 
NERRS,ioos:station:NOAA.NERRS:gndbcwq:1,2017-01-05T01:45:00Z,30.3836,-88.4364,0.0,17.5,2 
NERRS,ioos:station:NOAA.NERRS:gndbcwq:1,2017-01-05T02:45:00Z,30.3836,-88.4364,0.0,17.3,2 
NERRS,ioos:station:NOAA.NERRS:gndbcwq:1,2017-01-05T03:45:00Z,30.3836,-88.4364,0.0,17.1,2 
NERRS,ioos:station:NOAA.NERRS:gndbcwq:1,2017-01-05T04:45:00Z,30.3836,-88.4364,0.0,16.9,2 
NERRS,ioos:station:NOAA.NERRS:gndbcwq:1,2017-01-05T05:45:00Z,30.3836,-88.4364,0.0,16.7,2 
NERRS,ioos:station:NOAA.NERRS:gndbcwq:1,2017-01-05T06:45:00Z,30.3836,-88.4364,0.0,16.5,2 
NERRS,ioos:station:NOAA.NERRS:gndbcwq:1,2017-01-05T07:45:00Z,30.3836,-88.4364,0.0,16.4,2 
NERRS,ioos:station:NOAA.NERRS:gndbcwq:1,2017-01-05T08:45:00Z,30.3836,-88.4364,0.0,16.3,2 
NERRS,ioos:station:NOAA.NERRS:gndbcwq:1,2017-01-05T09:45:00Z,30.3836,-88.4364,0.0,16.3,2 
NERRS,ioos:station:NOAA.NERRS:gndbcwq:1,2017-01-05T10:45:00Z,30.3836,-88.4364,0.0,15.9,2 
NERRS,ioos:station:NOAA.NERRS:gndbcwq:1,2017-01-05T11:00:00Z,30.3836,-88.4364,0.0,15.8,2 
NERRS,ioos:station:NOAA.NERRS:gndbcwq:1,2017-01-05T14:45:00Z,30.3836,-88.4364,0.0,15.3,2 
NERRS,ioos:station:NOAA.NERRS:gndbcwq:1,2017-01-05T15:45:00Z,30.3836,-88.4364,0.0,15.4,2 
NERRS,ioos:station:NOAA.NERRS:gndbcwq:1,2017-01-05T16:45:00Z,30.3836,-88.4364,0.0,15.7,2 
NERRS,ioos:station:NOAA.NERRS:gndbcwq:1,2017-01-05T17:45:00Z,30.3836,-88.4364,0.0,15.9,2 
NERRS,ioos:station:NOAA.NERRS:gndbcwq:1,2017-01-05T18:45:00Z,30.3836,-88.4364,0.0,16.2,2 
NERRS,ioos:station:NOAA.NERRS:gndbcwq:1,2017-01-05T19:45:00Z,30.3836,-88.4364,0.0,16.2,2 
NERRS,ioos:station:NOAA.NERRS:gndbcwq:1,2017-01-05T20:45:00Z,30.3836,-88.4364,0.0,16.2,2 
NERRS,ioos:station:NOAA.NERRS:gndbcwq:1,2017-01-05T21:45:00Z,30.3836,-88.4364,0.0,16.1,2 
NERRS,ioos:station:NOAA.NERRS:gndbcwq:1,2017-01-05T22:45:00Z,30.3836,-88.4364,0.0,16.1,2 
NERRS,ioos:station:NOAA.NERRS:gndbcwq:1,2017-01-05T23:45:00Z,30.3836,-88.4364,0.0,16.2,2 
NERRS,ioos:station:NOAA.NERRS:gndbcwq:1,2017-01-06T00:45:00Z,30.3836,-88.4364,0.0,16.1,2 
NERRS,ioos:station:NOAA.NERRS:gndbcwq:1,2017-01-06T01:45:00Z,30.3836,-88.4364,0.0,16.1,2 
NERRS,ioos:station:NOAA.NERRS:gndbcwq:1,2017-01-06T02:45:00Z,30.3836,-88.4364,0.0,16.1,2 
NERRS,ioos:station:NOAA.NERRS:gndbcwq:1,2017-01-06T03:45:00Z,30.3836,-88.4364,0.0,16.2,2 
NERRS,ioos:station:NOAA.NERRS:gndbcwq:1,2017-01-06T04:45:00Z,30.3836,-88.4364,0.0,16.1,2 
NERRS,ioos:station:NOAA.NERRS:gndbcwq:1,2017-01-06T05:45:00Z,30.3836,-88.4364,0.0,16.0,2 
NERRS,ioos:station:NOAA.NERRS:gndbcwq:1,2017-01-06T06:15:00Z,30.3836,-88.4364,0.0,15.8,2 
NERRS,ioos:station:NOAA.NERRS:gndbcwq:1,2017-01-07T14:45:00Z,30.3836,-88.4364,0.0,9.3,2 
NERRS,ioos:station:NOAA.NERRS:gndbcwq:1,2017-01-07T15:45:00Z,30.3836,-88.4364,0.0,9.4,2 
NERRS,ioos:station:NOAA.NERRS:gndbcwq:1,2017-01-07T16:45:00Z,30.3836,-88.4364,0.0,9.6,2 
NERRS,ioos:station:NOAA.NERRS:gndbcwq:1,2017-01-07T17:45:00Z,30.3836,-88.4364,0.0,9.8,2 
NERRS,ioos:station:NOAA.NERRS:gndbcwq:1,2017-01-07T18:45:00Z,30.3836,-88.4364,0.0,10.1,2 
NERRS,ioos:station:NOAA.NERRS:gndbcwq:1,2017-01-07T19:45:00Z,30.3836,-88.4364,0.0,10.2,2 
NERRS,ioos:station:NOAA.NERRS:gndbcwq:1,2017-01-07T20:45:00Z,30.3836,-88.4364,0.0,10.4,2 
NERRS,ioos:station:NOAA.NERRS:gndbcwq:1,2017-01-07T21:45:00Z,30.3836,-88.4364,0.0,10.3,2 
NERRS,ioos:station:NOAA.NERRS:gndbcwq:1,2017-01-07T22:45:00Z,30.3836,-88.4364,0.0,9.9,2 
NERRS,ioos:station:NOAA.NERRS:gndbcwq:1,2017-01-07T23:45:00Z,30.3836,-88.4364,0.0,9.7,2 
NERRS,ioos:station:NOAA.NERRS:gndbcwq:1,2017-01-08T00:45:00Z,30.3836,-88.4364,0.0,9.1,2 
NERRS,ioos:station:NOAA.NERRS:gndbcwq:1,2017-01-08T01:45:00Z,30.3836,-88.4364,0.0,9.0,2 
NERRS,ioos:station:NOAA.NERRS:gndbcwq:1,2017-01-08T02:45:00Z,30.3836,-88.4364,0.0,8.9,2 
NERRS,ioos:station:NOAA.NERRS:gndbcwq:1,2017-01-08T03:45:00Z,30.3836,-88.4364,0.0,8.5,2 
NERRS,ioos:station:NOAA.NERRS:gndbcwq:1,2017-01-08T04:45:00Z,30.3836,-88.4364,0.0,7.8,2 
NERRS,ioos:station:NOAA.NERRS:gndbcwq:1,2017-01-08T05:45:00Z,30.3836,-88.4364,0.0,7.1,2 
NERRS,ioos:station:NOAA.NERRS:gndbcwq:1,2017-01-08T06:15:00Z,30.3836,-88.4364,0.0,6.5,2 
NERRS,ioos:station:NOAA.NERRS:gndbcwq:1,2017-01-08T14:45:00Z,30.3836,-88.4364,0.0,7.3,2 
NERRS,ioos:station:NOAA.NERRS:gndbcwq:1,2017-01-08T15:45:00Z,30.3836,-88.4364,0.0,7.4,2 
NERRS,ioos:station:NOAA.NERRS:gndbcwq:1,2017-01-08T16:45:00Z,30.3836,-88.4364,0.0,7.8,2 
NERRS,ioos:station:NOAA.NERRS:gndbcwq:1,2017-01-08T17:45:00Z,30.3836,-88.4364,0.0,8.2,2 
NERRS,ioos:station:NOAA.NERRS:gndbcwq:1,2017-01-08T18:45:00Z,30.3836,-88.4364,0.0,8.6,2 
NERRS,ioos:station:NOAA.NERRS:gndbcwq:1,2017-01-08T19:45:00Z,30.3836,-88.4364,0.0,8.7,2 
NERRS,ioos:station:NOAA.NERRS:gndbcwq:1,2017-01-08T20:45:00Z,30.3836,-88.4364,0.0,9.2,2 
NERRS,ioos:station:NOAA.NERRS:gndbcwq:1,2017-01-08T21:45:00Z,30.3836,-88.4364,0.0,9.1,2 
NERRS,ioos:station:NOAA.NERRS:gndbcwq:1,2017-01-08T22:45:00Z,30.3836,-88.4364,0.0,8.8,2 
NERRS,ioos:station:NOAA.NERRS:gndbcwq:1,2017-01-08T23:45:00Z,30.3836,-88.4364,0.0,8.8,2 
NERRS,ioos:station:NOAA.NERRS:gndbcwq:1,2017-01-09T00:45:00Z,30.3836,-88.4364,0.0,8.6,2 
NERRS,ioos:station:NOAA.NERRS:gndbcwq:1,2017-01-09T01:45:00Z,30.3836,-88.4364,0.0,8.5,2 
NERRS,ioos:station:NOAA.NERRS:gndbcwq:1,2017-01-09T02:45:00Z,30.3836,-88.4364,0.0,8.4,2 
NERRS,ioos:station:NOAA.NERRS:gndbcwq:1,2017-01-09T03:45:00Z,30.3836,-88.4364,0.0,8.3,2 
NERRS,ioos:station:NOAA.NERRS:gndbcwq:1,2017-01-09T04:45:00Z,30.3836,-88.4364,0.0,8.2,2 
NERRS,ioos:station:NOAA.NERRS:gndbcwq:1,2017-01-09T05:45:00Z,30.3836,-88.4364,0.0,7.8,2 
NERRS,ioos:station:NOAA.NERRS:gndbcwq:1,2017-01-09T06:45:00Z,30.3836,-88.4364,0.0,7.1,2 
NERRS,ioos:station:NOAA.NERRS:gndbcwq:1,2017-01-09T14:45:00Z,30.3836,-88.4364,0.0,7.3,2 
NERRS,ioos:station:NOAA.NERRS:gndbcwq:1,2017-01-09T15:45:00Z,30.3836,-88.4364,0.0,7.6,2 
NERRS,ioos:station:NOAA.NERRS:gndbcwq:1,2017-01-09T16:45:00Z,30.3836,-88.4364,0.0,7.9,2 
NERRS,ioos:station:NOAA.NERRS:gndbcwq:1,2017-01-09T17:45:00Z,30.3836,-88.4364,0.0,8.4,2 
NERRS,ioos:station:NOAA.NERRS:gndbcwq:1,2017-01-09T18:45:00Z,30.3836,-88.4364,0.0,8.9,2 
NERRS,ioos:station:NOAA.NERRS:gndbcwq:1,2017-01-09T19:45:00Z,30.3836,-88.4364,0.0,9.5,2 
NERRS,ioos:station:NOAA.NERRS:gndbcwq:1,2017-01-09T20:45:00Z,30.3836,-88.4364,0.0,9.8,2 
NERRS,ioos:station:NOAA.NERRS:gndbcwq:1,2017-01-09T21:45:00Z,30.3836,-88.4364,0.0,9.8,2 
NERRS,ioos:station:NOAA.NERRS:gndbcwq:1,2017-01-09T22:45:00Z,30.3836,-88.4364,0.0,9.1,2 
NERRS,ioos:station:NOAA.NERRS:gndbcwq:1,2017-01-09T23:45:00Z,30.3836,-88.4364,0.0,8.6,2 
NERRS,ioos:station:NOAA.NERRS:gndbcwq:1,2017-01-10T00:45:00Z,30.3836,-88.4364,0.0,8.2,2 
NERRS,ioos:station:NOAA.NERRS:gndbcwq:1,2017-01-10T01:45:00Z,30.3836,-88.4364,0.0,8.5,2 
NERRS,ioos:station:NOAA.NERRS:gndbcwq:1,2017-01-10T02:45:00Z,30.3836,-88.4364,0.0,8.4,2 
NERRS,ioos:station:NOAA.NERRS:gndbcwq:1,2017-01-10T03:45:00Z,30.3836,-88.4364,0.0,8.3,2 
NERRS,ioos:station:NOAA.NERRS:gndbcwq:1,2017-01-10T04:45:00Z,30.3836,-88.4364,0.0,8.4,2 
NERRS,ioos:station:NOAA.NERRS:gndbcwq:1,2017-01-10T05:45:00Z,30.3836,-88.4364,0.0,8.9,2 
NERRS,ioos:station:NOAA.NERRS:gndbcwq:1,2017-01-10T06:45:00Z,30.3836,-88.4364,0.0,9.2,2 
NERRS,ioos:station:NOAA.NERRS:gndbcwq:1,2017-01-10T07:45:00Z,30.3836,-88.4364,0.0,9.4,2 
NERRS,ioos:station:NOAA.NERRS:gndbcwq:1,2017-01-10T15:45:00Z,30.3836,-88.4364,0.0,9.8,2 
NERRS,ioos:station:NOAA.NERRS:gndbcwq:1,2017-01-10T16:45:00Z,30.3836,-88.4364,0.0,9.9,2 
NERRS,ioos:station:NOAA.NERRS:gndbcwq:1,2017-01-10T17:45:00Z,30.3836,-88.4364,0.0,10.0,2 
NERRS,ioos:station:NOAA.NERRS:gndbcwq:1,2017-01-10T18:45:00Z,30.3836,-88.4364,0.0,10.6,2 
NERRS,ioos:station:NOAA.NERRS:gndbcwq:1,2017-01-10T19:45:00Z,30.3836,-88.4364,0.0,9.9,2 
NERRS,ioos:station:NOAA.NERRS:gndbcwq:1,2017-01-10T20:45:00Z,30.3836,-88.4364,0.0,9.5,2 
NERRS,ioos:station:NOAA.NERRS:gndbcwq:1,2017-01-10T21:45:00Z,30.3836,-88.4364,0.0,9.6,2 
NERRS,ioos:station:NOAA.NERRS:gndbcwq:1,2017-01-10T22:45:00Z,30.3836,-88.4364,0.0,10.4,2 
NERRS,ioos:station:NOAA.NERRS:gndbcwq:1,2017-01-10T23:45:00Z,30.3836,-88.4364,0.0,10.3,2 
NERRS,ioos:station:NOAA.NERRS:gndbcwq:1,2017-01-11T00:00:00Z,30.3836,-88.4364,0.0,10.1,2 
NERRS,ioos:station:NOAA.NERRS:gndbcwq:1,2017-01-11T14:45:00Z,30.3836,-88.4364,0.0,11.8,2 
NERRS,ioos:station:NOAA.NERRS:gndbcwq:1,2017-01-11T15:45:00Z,30.3836,-88.4364,0.0,12.5,2 
NERRS,ioos:station:NOAA.NERRS:gndbcwq:1,2017-01-11T16:45:00Z,30.3836,-88.4364,0.0,12.1,2 
NERRS,ioos:station:NOAA.NERRS:gndbcwq:1,2017-01-11T17:45:00Z,30.3836,-88.4364,0.0,13.6,2 
NERRS,ioos:station:NOAA.NERRS:gndbcwq:1,2017-01-11T18:45:00Z,30.3836,-88.4364,0.0,14.2,2 
NERRS,ioos:station:NOAA.NERRS:gndbcwq:1,2017-01-11T19:45:00Z,30.3836,-88.4364,0.0,13.7,2 
NERRS,ioos:station:NOAA.NERRS:gndbcwq:1,2017-01-11T20:45:00Z,30.3836,-88.4364,0.0,14.8,2 
NERRS,ioos:station:NOAA.NERRS:gndbcwq:1,2017-01-11T21:45:00Z,30.3836,-88.4364,0.0,14.9,2 
NERRS,ioos:station:NOAA.NERRS:gndbcwq:1,2017-01-11T22:45:00Z,30.3836,-88.4364,0.0,14.8,2 
NERRS,ioos:station:NOAA.NERRS:gndbcwq:1,2017-01-11T23:45:00Z,30.3836,-88.4364,0.0,14.3,2 
NERRS,ioos:station:NOAA.NERRS:gndbcwq:1,2017-01-12T00:45:00Z,30.3836,-88.4364,0.0,13.1,2 
NERRS,ioos:station:NOAA.NERRS:gndbcwq:1,2017-01-12T01:45:00Z,30.3836,-88.4364,0.0,13.1,2 
NERRS,ioos:station:NOAA.NERRS:gndbcwq:1,2017-01-12T02:45:00Z,30.3836,-88.4364,0.0,13.2,2 
NERRS,ioos:station:NOAA.NERRS:gndbcwq:1,2017-01-12T03:45:00Z,30.3836,-88.4364,0.0,13.2,2 
NERRS,ioos:station:NOAA.NERRS:gndbcwq:1,2017-01-12T04:45:00Z,30.3836,-88.4364,0.0,13.2,2 
NERRS,ioos:station:NOAA.NERRS:gndbcwq:1,2017-01-12T05:45:00Z,30.3836,-88.4364,0.0,13.2,2 
NERRS,ioos:station:NOAA.NERRS:gndbcwq:1,2017-01-12T06:45:00Z,30.3836,-88.4364,0.0,13.3,2 
NERRS,ioos:station:NOAA.NERRS:gndbcwq:1,2017-01-12T07:00:00Z,30.3836,-88.4364,0.0,13.3,2 
NERRS,ioos:station:NOAA.NERRS:gndbcwq:1,2017-01-12T14:45:00Z,30.3836,-88.4364,0.0,14.1,2 
NERRS,ioos:station:NOAA.NERRS:gndbcwq:1,2017-01-12T15:45:00Z,30.3836,-88.4364,0.0,14.2,2 
NERRS,ioos:station:NOAA.NERRS:gndbcwq:1,2017-01-12T16:45:00Z,30.3836,-88.4364,0.0,14.0,2 
NERRS,ioos:station:NOAA.NERRS:gndbcwq:1,2017-01-12T17:45:00Z,30.3836,-88.4364,0.0,14.2,2 
NERRS,ioos:station:NOAA.NERRS:gndbcwq:1,2017-01-12T18:45:00Z,30.3836,-88.4364,0.0,14.1,2 
NERRS,ioos:station:NOAA.NERRS:gndbcwq:1,2017-01-12T19:45:00Z,30.3836,-88.4364,0.0,16.7,2 
NERRS,ioos:station:NOAA.NERRS:gndbcwq:1,2017-01-12T20:45:00Z,30.3836,-88.4364,0.0,16.3,2 
NERRS,ioos:station:NOAA.NERRS:gndbcwq:1,2017-01-12T21:45:00Z,30.3836,-88.4364,0.0,15.7,2 
NERRS,ioos:station:NOAA.NERRS:gndbcwq:1,2017-01-12T22:45:00Z,30.3836,-88.4364,0.0,14.4,2 
NERRS,ioos:station:NOAA.NERRS:gndbcwq:1,2017-01-12T23:45:00Z,30.3836,-88.4364,0.0,14.7,2 
NERRS,ioos:station:NOAA.NERRS:gndbcwq:1,2017-01-13T00:45:00Z,30.3836,-88.4364,0.0,14.5,2 
NERRS,ioos:station:NOAA.NERRS:gndbcwq:1,2017-01-13T01:45:00Z,30.3836,-88.4364,0.0,15.2,2 
NERRS,ioos:station:NOAA.NERRS:gndbcwq:1,2017-01-13T02:45:00Z,30.3836,-88.4364,0.0,14.8,2 
NERRS,ioos:station:NOAA.NERRS:gndbcwq:1,2017-01-13T03:45:00Z,30.3836,-88.4364,0.0,14.3,2 
NERRS,ioos:station:NOAA.NERRS:gndbcwq:1,2017-01-13T04:45:00Z,30.3836,-88.4364,0.0,14.1,2 
NERRS,ioos:station:NOAA.NERRS:gndbcwq:1,2017-01-13T05:45:00Z,30.3836,-88.4364,0.0,14.3,2 
NERRS,ioos:station:NOAA.NERRS:gndbcwq:1,2017-01-13T06:30:00Z,30.3836,-88.4364,0.0,14.4,2 
NERRS,ioos:station:NOAA.NERRS:gndbcwq:1,2017-01-17T17:45:00Z,30.3836,-88.4364,0.0,20.2,2 
NERRS,ioos:station:NOAA.NERRS:gndbcwq:1,2017-01-17T18:45:00Z,30.3836,-88.4364,0.0,20.2,2 
NERRS,ioos:station:NOAA.NERRS:gndbcwq:1,2017-01-17T19:45:00Z,30.3836,-88.4364,0.0,21.1,2 
NERRS,ioos:station:NOAA.NERRS:gndbcwq:1,2017-01-17T20:45:00Z,30.3836,-88.4364,0.0,21.2,2 
NERRS,ioos:station:NOAA.NERRS:gndbcwq:1,2017-01-17T21:45:00Z,30.3836,-88.4364,0.0,21.8,2 
NERRS,ioos:station:NOAA.NERRS:gndbcwq:1,2017-01-17T22:45:00Z,30.3836,-88.4364,0.0,21.7,2 
NERRS,ioos:station:NOAA.NERRS:gndbcwq:1,2017-01-17T23:45:00Z,30.3836,-88.4364,0.0,21.4,2 
NERRS,ioos:station:NOAA.NERRS:gndbcwq:1,2017-01-18T00:45:00Z,30.3836,-88.4364,0.0,21.6,2 
NERRS,ioos:station:NOAA.NERRS:gndbcwq:1,2017-01-18T01:45:00Z,30.3836,-88.4364,0.0,21.1,2 
NERRS,ioos:station:NOAA.NERRS:gndbcwq:1,2017-01-18T02:45:00Z,30.3836,-88.4364,0.0,21.5,2 
NERRS,ioos:station:NOAA.NERRS:gndbcwq:1,2017-01-18T03:45:00Z,30.3836,-88.4364,0.0,21.3,2 
NERRS,ioos:station:NOAA.NERRS:gndbcwq:1,2017-01-18T04:45:00Z,30.3836,-88.4364,0.0,21.3,2 
NERRS,ioos:station:NOAA.NERRS:gndbcwq:1,2017-01-18T05:45:00Z,30.3836,-88.4364,0.0,21.1,2 
NERRS,ioos:station:NOAA.NERRS:gndbcwq:1,2017-01-18T06:45:00Z,30.3836,-88.4364,0.0,21.3,2 
NERRS,ioos:station:NOAA.NERRS:gndbcwq:1,2017-01-18T07:45:00Z,30.3836,-88.4364,0.0,21.0,2 
NERRS,ioos:station:NOAA.NERRS:gndbcwq:1,2017-01-18T08:15:00Z,30.3836,-88.4364,0.0,20.8,2 
NERRS,ioos:station:NOAA.NERRS:gndbcwq:1,2017-01-18T14:45:00Z,30.3836,-88.4364,0.0,20.4,2 
NERRS,ioos:station:NOAA.NERRS:gndbcwq:1,2017-01-18T15:45:00Z,30.3836,-88.4364,0.0,20.4,2 
NERRS,ioos:station:NOAA.NERRS:gndbcwq:1,2017-01-18T16:45:00Z,30.3836,-88.4364,0.0,20.5,2 
NERRS,ioos:station:NOAA.NERRS:gndbcwq:1,2017-01-18T17:45:00Z,30.3836,-88.4364,0.0,20.9,2 
NERRS,ioos:station:NOAA.NERRS:gndbcwq:1,2017-01-18T18:45:00Z,30.3836,-88.4364,0.0,20.9,2 
NERRS,ioos:station:NOAA.NERRS:gndbcwq:1,2017-01-18T19:45:00Z,30.3836,-88.4364,0.0,21.4,2 
NERRS,ioos:station:NOAA.NERRS:gndbcwq:1,2017-01-18T20:45:00Z,30.3836,-88.4364,0.0,21.4,2 
NERRS,ioos:station:NOAA.NERRS:gndbcwq:1,2017-01-18T21:45:00Z,30.3836,-88.4364,0.0,21.7,2 
NERRS,ioos:station:NOAA.NERRS:gndbcwq:1,2017-01-18T22:45:00Z,30.3836,-88.4364,0.0,21.7,2 
NERRS,ioos:station:NOAA.NERRS:gndbcwq:1,2017-01-18T23:45:00Z,30.3836,-88.4364,0.0,21.7,2 
NERRS,ioos:station:NOAA.NERRS:gndbcwq:1,2017-01-19T00:45:00Z,30.3836,-88.4364,0.0,22.4,2 
NERRS,ioos:station:NOAA.NERRS:gndbcwq:1,2017-01-19T01:45:00Z,30.3836,-88.4364,0.0,22.5,2 
NERRS,ioos:station:NOAA.NERRS:gndbcwq:1,2017-01-19T02:45:00Z,30.3836,-88.4364,0.0,21.9,2 
NERRS,ioos:station:NOAA.NERRS:gndbcwq:1,2017-01-19T03:45:00Z,30.3836,-88.4364,0.0,22.1,2 
NERRS,ioos:station:NOAA.NERRS:gndbcwq:1,2017-01-19T04:45:00Z,30.3836,-88.4364,0.0,21.6,2 
NERRS,ioos:station:NOAA.NERRS:gndbcwq:1,2017-01-19T05:45:00Z,30.3836,-88.4364,0.0,21.8,2 
NERRS,ioos:station:NOAA.NERRS:gndbcwq:1,2017-01-19T06:45:00Z,30.3836,-88.4364,0.0,21.8,2 
NERRS,ioos:station:NOAA.NERRS:gndbcwq:1,2017-01-19T07:30:00Z,30.3836,-88.4364,0.0,21.7,2 
NERRS,ioos:station:NOAA.NERRS:gndbcwq:1,2017-01-19T14:45:00Z,30.3836,-88.4364,0.0,22.1,2 
NERRS,ioos:station:NOAA.NERRS:gndbcwq:1,2017-01-19T15:45:00Z,30.3836,-88.4364,0.0,21.6,2 
NERRS,ioos:station:NOAA.NERRS:gndbcwq:1,2017-01-19T16:45:00Z,30.3836,-88.4364,0.0,21.8,2 
NERRS,ioos:station:NOAA.NERRS:gndbcwq:1,2017-01-19T17:45:00Z,30.3836,-88.4364,0.0,21.5,2 
NERRS,ioos:station:NOAA.NERRS:gndbcwq:1,2017-01-19T18:45:00Z,30.3836,-88.4364,0.0,22.1,2 
NERRS,ioos:station:NOAA.NERRS:gndbcwq:1,2017-01-19T19:45:00Z,30.3836,-88.4364,0.0,22.3,2 
NERRS,ioos:station:NOAA.NERRS:gndbcwq:1,2017-01-19T20:45:00Z,30.3836,-88.4364,0.0,21.9,2 
NERRS,ioos:station:NOAA.NERRS:gndbcwq:1,2017-01-19T21:45:00Z,30.3836,-88.4364,0.0,21.6,2 
NERRS,ioos:station:NOAA.NERRS:gndbcwq:1,2017-01-19T22:45:00Z,30.3836,-88.4364,0.0,21.5,2 
NERRS,ioos:station:NOAA.NERRS:gndbcwq:1,2017-01-19T23:45:00Z,30.3836,-88.4364,0.0,21.5,2 
NERRS,ioos:station:NOAA.NERRS:gndbcwq:1,2017-01-20T00:45:00Z,30.3836,-88.4364,0.0,21.6,2 
NERRS,ioos:station:NOAA.NERRS:gndbcwq:1,2017-01-20T01:45:00Z,30.3836,-88.4364,0.0,21.5,2 
NERRS,ioos:station:NOAA.NERRS:gndbcwq:1,2017-01-20T03:45:00Z,30.3836,-88.4364,0.0,21.5,2 
NERRS,ioos:station:NOAA.NERRS:gndbcwq:1,2017-01-20T04:45:00Z,30.3836,-88.4364,0.0,21.4,2 
NERRS,ioos:station:NOAA.NERRS:gndbcwq:1,2017-01-20T05:45:00Z,30.3836,-88.4364,0.0,21.2,2 
NERRS,ioos:station:NOAA.NERRS:gndbcwq:1,2017-01-20T14:30:00Z,30.3836,-88.4364,0.0,20.8,2 
NERRS,ioos:station:NOAA.NERRS:gndbcwq:1,2017-01-20T15:45:00Z,30.3836,-88.4364,0.0,20.8,2 
NERRS,ioos:station:NOAA.NERRS:gndbcwq:1,2017-01-20T16:45:00Z,30.3836,-88.4364,0.0,20.8,2 
NERRS,ioos:station:NOAA.NERRS:gndbcwq:1,2017-01-20T17:45:00Z,30.3836,-88.4364,0.0,21.1,2 
NERRS,ioos:station:NOAA.NERRS:gndbcwq:1,2017-01-20T20:45:00Z,30.3836,-88.4364,0.0,21.4,2 
NERRS,ioos:station:NOAA.NERRS:gndbcwq:1,2017-01-20T21:45:00Z,30.3836,-88.4364,0.0,21.4,2 
NERRS,ioos:station:NOAA.NERRS:gndbcwq:1,2017-01-20T22:45:00Z,30.3836,-88.4364,0.0,21.3,2 
NERRS,ioos:station:NOAA.NERRS:gndbcwq:1,2017-01-21T15:45:00Z,30.3836,-88.4364,0.0,20.5,2 
NERRS,ioos:station:NOAA.NERRS:gndbcwq:1,2017-01-21T16:45:00Z,30.3836,-88.4364,0.0,20.8,2 
NERRS,ioos:station:NOAA.NERRS:gndbcwq:1,2017-01-21T17:45:00Z,30.3836,-88.4364,0.0,20.9,2 
NERRS,ioos:station:NOAA.NERRS:gndbcwq:1,2017-01-21T18:45:00Z,30.3836,-88.4364,0.0,21.5,2 
NERRS,ioos:station:NOAA.NERRS:gndbcwq:1,2017-01-21T19:45:00Z,30.3836,-88.4364,0.0,21.6,2 
NERRS,ioos:station:NOAA.NERRS:gndbcwq:1,2017-01-21T20:45:00Z,30.3836,-88.4364,0.0,21.4,2 
NERRS,ioos:station:NOAA.NERRS:gndbcwq:1,2017-01-21T21:45:00Z,30.3836,-88.4364,0.0,21.2,2 
NERRS,ioos:station:NOAA.NERRS:gndbcwq:1,2017-01-21T22:45:00Z,30.3836,-88.4364,0.0,21.1,2 
NERRS,ioos:station:NOAA.NERRS:gndbcwq:1,2017-01-21T23:45:00Z,30.3836,-88.4364,0.0,21.0,2 
NERRS,ioos:station:NOAA.NERRS:gndbcwq:1,2017-01-22T00:45:00Z,30.3836,-88.4364,0.0,21.0,2 
NERRS,ioos:station:NOAA.NERRS:gndbcwq:1,2017-01-22T01:45:00Z,30.3836,-88.4364,0.0,20.9,2 
NERRS,ioos:station:NOAA.NERRS:gndbcwq:1,2017-01-22T02:45:00Z,30.3836,-88.4364,0.0,20.8,2 
NERRS,ioos:station:NOAA.NERRS:gndbcwq:1,2017-01-22T03:45:00Z,30.3836,-88.4364,0.0,20.8,2 
NERRS,ioos:station:NOAA.NERRS:gndbcwq:1,2017-01-22T04:45:00Z,30.3836,-88.4364,0.0,20.7,2 
NERRS,ioos:station:NOAA.NERRS:gndbcwq:1,2017-01-22T05:00:00Z,30.3836,-88.4364,0.0,20.7,2 
NERRS,ioos:station:NOAA.NERRS:gndbcwq:1,2017-01-22T17:45:00Z,30.3836,-88.4364,0.0,20.7,2 
NERRS,ioos:station:NOAA.NERRS:gndbcwq:1,2017-01-22T18:45:00Z,30.3836,-88.4364,0.0,20.8,2 
NERRS,ioos:station:NOAA.NERRS:gndbcwq:1,2017-01-22T19:45:00Z,30.3836,-88.4364,0.0,21.0,2 
NERRS,ioos:station:NOAA.NERRS:gndbcwq:1,2017-01-22T20:45:00Z,30.3836,-88.4364,0.0,21.1,2 
NERRS,ioos:station:NOAA.NERRS:gndbcwq:1,2017-01-22T21:45:00Z,30.3836,-88.4364,0.0,20.9,2 
NERRS,ioos:station:NOAA.NERRS:gndbcwq:1,2017-01-22T22:45:00Z,30.3836,-88.4364,0.0,20.5,2 
NERRS,ioos:station:NOAA.NERRS:gndbcwq:1,2017-01-22T23:45:00Z,30.3836,-88.4364,0.0,20.0,2 
NERRS,ioos:station:NOAA.NERRS:gndbcwq:1,2017-01-23T00:45:00Z,30.3836,-88.4364,0.0,19.7,2 
NERRS,ioos:station:NOAA.NERRS:gndbcwq:1,2017-01-23T01:45:00Z,30.3836,-88.4364,0.0,19.5,2 
NERRS,ioos:station:NOAA.NERRS:gndbcwq:1,2017-01-23T02:45:00Z,30.3836,-88.4364,0.0,19.2,2 
NERRS,ioos:station:NOAA.NERRS:gndbcwq:1,2017-01-23T03:45:00Z,30.3836,-88.4364,0.0,18.9,2 
NERRS,ioos:station:NOAA.NERRS:gndbcwq:1,2017-01-23T04:45:00Z,30.3836,-88.4364,0.0,18.4,2 
NERRS,ioos:station:NOAA.NERRS:gndbcwq:1,2017-01-23T05:00:00Z,30.3836,-88.4364,0.0,18.0,2 
NERRS,ioos:station:NOAA.NERRS:gndbcwq:1,2017-01-23T14:45:00Z,30.3836,-88.4364,0.0,16.6,2 
NERRS,ioos:station:NOAA.NERRS:gndbcwq:1,2017-01-23T15:45:00Z,30.3836,-88.4364,0.0,16.8,2 
NERRS,ioos:station:NOAA.NERRS:gndbcwq:1,2017-01-23T16:45:00Z,30.3836,-88.4364,0.0,17.4,2 
NERRS,ioos:station:NOAA.NERRS:gndbcwq:1,2017-01-23T17:45:00Z,30.3836,-88.4364,0.0,17.9,2 
NERRS,ioos:station:NOAA.NERRS:gndbcwq:1,2017-01-23T18:45:00Z,30.3836,-88.4364,0.0,18.0,2 
NERRS,ioos:station:NOAA.NERRS:gndbcwq:1,2017-01-23T19:45:00Z,30.3836,-88.4364,0.0,18.2,2 
NERRS,ioos:station:NOAA.NERRS:gndbcwq:1,2017-01-23T20:45:00Z,30.3836,-88.4364,0.0,18.5,2 
NERRS,ioos:station:NOAA.NERRS:gndbcwq:1,2017-01-23T21:45:00Z,30.3836,-88.4364,0.0,19.1,2 
NERRS,ioos:station:NOAA.NERRS:gndbcwq:1,2017-01-23T22:45:00Z,30.3836,-88.4364,0.0,17.9,2 
NERRS,ioos:station:NOAA.NERRS:gndbcwq:1,2017-01-23T23:45:00Z,30.3836,-88.4364,0.0,18.0,2 
NERRS,ioos:station:NOAA.NERRS:gndbcwq:1,2017-01-24T00:45:00Z,30.3836,-88.4364,0.0,18.1,2 
NERRS,ioos:station:NOAA.NERRS:gndbcwq:1,2017-01-24T01:45:00Z,30.3836,-88.4364,0.0,18.0,2 
NERRS,ioos:station:NOAA.NERRS:gndbcwq:1,2017-01-24T02:45:00Z,30.3836,-88.4364,0.0,17.9,2 
NERRS,ioos:station:NOAA.NERRS:gndbcwq:1,2017-01-24T03:45:00Z,30.3836,-88.4364,0.0,17.7,2 